Satellite: RS-30
Catalog number: 32953
Epoch time:      12124.61897675
Element set:     747
Inclination:      082.5013 deg
RA of node:       322.8610 deg
Eccentricity:    0.0019667
Arg of perigee:   046.8677 deg
Mean anomaly:     313.4041 deg
Mean motion:   12.43022956 rev/day
Decay rate:        1.0e-07 rev/day^2
Epoch rev:           17902
Checksum:              291

Satellite: TACSAT-3
Catalog number: 35001
Epoch time:      12121.72616188
Element set:    0001
Inclination:      040.4259 deg
RA of node:       351.8840 deg
Eccentricity:    0.0007146
Arg of perigee:   275.2650 deg
Mean anomaly:     085.0693 deg
Mean motion:   16.45157000 rev/day
Decay rate:  1.5204951e-01 rev/day^2
Epoch rev:           16699
Checksum:              280

Satellite: PHARMSAT
Catalog number: 35002
Epoch time:      12124.89088708
Element set:     887
Inclination:      040.4650 deg
RA of node:       349.2312 deg
Eccentricity:    0.0006128
Arg of perigee:   266.3474 deg
Mean anomaly:     093.6651 deg
Mean motion:   15.75865552 rev/day
Decay rate:     8.0998e-04 rev/day^2
Epoch rev:           16731
Checksum:              321

Satellite: METEOR-M
Catalog number: 35865
Epoch time:      12124.81608747
Element set:     378
Inclination:      098.6583 deg
RA of node:       179.9643 deg
Eccentricity:    0.0002457
Arg of perigee:   160.2227 deg
Mean anomaly:     199.9040 deg
Mean motion:   14.21861082 rev/day
Decay rate:        8.0e-08 rev/day^2
Epoch rev:           13629
Checksum:              318

Satellite: RS-38
Catalog number: 35869
Epoch time:      12124.77337353
Element set:     387
Inclination:      098.6542 deg
RA of node:       179.9254 deg
Eccentricity:    0.0004548
Arg of perigee:   170.6375 deg
Mean anomaly:     189.4886 deg
Mean motion:   14.22067030 rev/day
Decay rate:        3.6e-07 rev/day^2
Epoch rev:           13630
Checksum:              331

Satellite: JUGNU
Catalog number: 37839
Epoch time:      12124.58066929
Element set:     141
Inclination:      019.9607 deg
RA of node:       268.4937 deg
Eccentricity:    0.0018855
Arg of perigee:   088.8523 deg
Mean anomaly:     271.3979 deg
Mean motion:   14.12048722 rev/day
Decay rate:       6.19e-06 rev/day^2
Epoch rev:            2893
Checksum:              339

Satellite: SRMSAT
Catalog number: 37841
Epoch time:      12124.78678427
Element set:     142
Inclination:      019.9745 deg
RA of node:       271.2223 deg
Eccentricity:    0.0011139
Arg of perigee:   061.2528 deg
Mean anomaly:     298.9144 deg
Mean motion:   14.10134668 rev/day
Decay rate:       2.64e-06 rev/day^2
Epoch rev:            2891
Checksum:              294

Satellite: RAX-2
Catalog number: 37853
Epoch time:      12123.95477718
Element set:    0177
Inclination:      101.7158 deg
RA of node:       143.5585 deg
Eccentricity:    0.0249112
Arg of perigee:   119.9210 deg
Mean anomaly:     242.6981 deg
Mean motion:   14.79538602 rev/day
Decay rate:      4.821e-05 rev/day^2
Epoch rev:           02771
Checksum:              314

Satellite: AUBIESAT
Catalog number: 37854
Epoch time:      12124.79962586
Element set:     168
Inclination:      101.7185 deg
RA of node:       144.9774 deg
Eccentricity:    0.0250449
Arg of perigee:   116.8937 deg
Mean anomaly:     245.8094 deg
Mean motion:   14.79901000 rev/day
Decay rate:      4.664e-05 rev/day^2
Epoch rev:            2782
Checksum:              332

Satellite: HRBE
Catalog number: 37855
Epoch time:      12124.80925111
Element set:     167
Inclination:      101.7191 deg
RA of node:       144.9603 deg
Eccentricity:    0.0250191
Arg of perigee:   116.9367 deg
Mean anomaly:     245.7622 deg
Mean motion:   14.79774256 rev/day
Decay rate:      4.533e-05 rev/day^2
Epoch rev:            2782
Checksum:              299

Satellite: RS-39
Catalog number: 38051
Epoch time:      12124.85726972
Element set:     302
Inclination:      051.6310 deg
RA of node:       010.9781 deg
Eccentricity:    0.0010526
Arg of perigee:   237.5295 deg
Mean anomaly:     198.8815 deg
Mean motion:   15.23540625 rev/day
Decay rate:      6.991e-05 rev/day^2
Epoch rev:            1521
Checksum:              295

Satellite: E-STAR
Catalog number: 38079
Epoch time:      12124.87187831
Element set:     196
Inclination:      069.5050 deg
RA of node:       056.7849 deg
Eccentricity:    0.0755793
Arg of perigee:   303.7276 deg
Mean anomaly:     049.3859 deg
Mean motion:   14.12557633 rev/day
Decay rate:     3.9192e-04 rev/day^2
Epoch rev:            1132
Checksum:              338

Satellite: GOLIAT
Catalog number: 38085
Epoch time:      12124.83391227
Element set:     185
Inclination:      069.4849 deg
RA of node:       056.9883 deg
Eccentricity:    0.0757240
Arg of perigee:   303.7440 deg
Mean anomaly:     049.3635 deg
Mean motion:   14.11652581 rev/day
Decay rate:     3.5221e-04 rev/day^2
Epoch rev:            1131
Checksum:              298

/EX


_______________________________________________
Via the Keps mailing list courtesy of AMSAT-NA
http://amsat.org/mailman/listinfo/keps

--- ViaMAIL!/WC v1.60d
 * Origin: Chowdanet (401-724-4410) telnet://chowdanet.com  (1:323/120)